QPF
0.00 0.00 0.00 0.00 0.00 0.00 0.00 0.00 0.00 0.00 0.00 0.00 0.00 0.00 0.00 0.00 0.00 0.00 0.00 0.00 0.00 0.00 0.00 0.00 0.00 0.00 0.00 0.00 0.00 0.00 0.00 0.00 0.00 0.00 0.00 0.00 0.01 0.00 0.01 0.00 0.00 0.00 0.00 0.00
0.00 0.00 0.00 0.00 0.00 0.00 0.00 0.00 0.00 0.00 0.00 0.00 0.00 0.00 0.00 0.00 0.00 0.00 0.00 0.00 0.00 0.00 0.00 0.00 0.00 0.00 0.00 0.00 0.00 0.00 0.00 0.00 0.00 0.00 0.00 0.00 0.00 0.00 0.00 0.01 0.01 0.01 0.01 0.01
0.00 0.00 0.00 0.00 0.00 0.00 0.00 0.00 0.00 0.00 0.00 0.00 0.00 0.00 0.00 0.00 0.00 0.00 0.00 0.00 0.00 0.00 0.00 0.00 0.00 0.00 0.00 0.00 0.00 0.00 0.00 0.00 0.00 0.00 0.00 0.00 0.01 0.01 0.02 0.01 0.02 0.02 0.02 0.02
0.00 0.00 0.00 0.00 0.00 0.00 0.00 0.00 0.00 0.00 0.00 0.00 0.00 0.00 0.00 0.00 0.00 0.00 0.00 0.00 0.00 0.00 0.00 0.00 0.00 0.00 0.00 0.00 0.00 0.00 0.00 0.00 0.00 0.00 0.00 0.00 0.00 0.01 0.01 0.01 0.01 0.01 0.01 0.01
0.00 0.00 0.00 0.00 0.00 0.00 0.00 0.00 0.00 0.00 0.00 0.00 0.00 0.00 0.00 0.00 0.00 0.00 0.00 0.00 0.00 0.00 0.00 0.00 0.00 0.00 0.00 0.00 0.00 0.00 0.00 0.00 0.00 0.00 0.00 0.00 0.00 0.00 0.00 0.00 0.01 0.01 0.01 0.01
0.00 0.00 0.00 0.00 0.00 0.00 0.00 0.00 0.00 0.00 0.00 0.00 0.00 0.00 0.00 0.00 0.00 0.00 0.00 0.00 0.00 0.00 0.00 0.00 0.00 0.00 0.00 0.00 0.00 0.00 0.00 0.00 0.00 0.00 0.00 0.00 0.00 0.00 0.00 0.00 0.01 0.00 0.00 0.00
0.00 0.00 0.00 0.00 0.00 0.00 0.00 0.00 0.00 0.00 0.00 0.00 0.00 0.00 0.00 0.00 0.00 0.00 0.00 0.00 0.00 0.00 0.00 0.00 0.00 0.00 0.00 0.00 0.00 0.00 0.00 0.00 0.00 0.00 0.00 0.00 0.00 0.00 0.00 0.00 0.00 0.00 0.00 0.00
0.00 0.00 0.00 0.00 0.00 0.00 0.00 0.00 0.00 0.00 0.00 0.00 0.00 0.00 0.00 0.00 0.00 0.00 0.00 0.00 0.00 0.00 0.00 0.00 0.00 0.00 0.00 0.00 0.00 0.00 0.00 0.00 0.00 0.00 0.00 0.00 0.00 0.00 0.00 0.00 0.00 0.00 0.00 0.00
0.00 0.00 0.00 0.00 0.00 0.00 0.00 0.00 0.00 0.00 0.00 0.00 0.00 0.00 0.00 0.00 0.00 0.00 0.00 0.00 0.00 0.00 0.00 0.00 0.00 0.00 0.00 0.00 0.00 0.00 0.00 0.00 0.00 0.00 0.00 0.00 0.00 0.00 0.00 0.00 0.00 0.00 0.00 0.00
0.00 0.00 0.00 0.00 0.00 0.00 0.00 0.00 0.00 0.00 0.00 0.00 0.00 0.00 0.00 0.00 0.00 0.00 0.00 0.00 0.00 0.00 0.00 0.00 0.00 0.00 0.00 0.00 0.00 0.00 0.00 0.00 0.00 0.00 0.00 0.00 0.00 0.00 0.00 0.00 0.00 0.00 0.00 0.00
0.00 0.00 0.00 0.00 0.00 0.00 0.00 0.00 0.00 0.00 0.00 0.00 0.00 0.00 0.00 0.00 0.00 0.00 0.00 0.00 0.00 0.00 0.00 0.00 0.00 0.00 0.00 0.00 0.00 0.00 0.00 0.00 0.00 0.00 0.00 0.00 0.00 0.00 0.00 0.00 0.00 0.00 0.00 0.00
0.00 0.00 0.00 0.00 0.00 0.00 0.00 0.00 0.00 0.00 0.00 0.00 0.00 0.00 0.00 0.00 0.00 0.00 0.00 0.00 0.00 0.00 0.00 0.00 0.00 0.00 0.00 0.00 0.00 0.00 0.00 0.00 0.00 0.00 0.00 0.00 0.00 0.00 0.00 0.00 0.00 0.00 0.00 0.00
0.00 0.00 0.00 0.00 0.00 0.00 0.00 0.00 0.00 0.00 0.00 0.00 0.00 0.00 0.00 0.00 0.00 0.00 0.00 0.00 0.00 0.00 0.00 0.00 0.00 0.00 0.00 0.00 0.00 0.00 0.00 0.00 0.00 0.00 0.00 0.00 0.00 0.00 0.00 0.00 0.00 0.00 0.00 0.00
0.00 0.00 0.00 0.00 0.00 0.00 0.00 0.00 0.00 0.00 0.00 0.00 0.00 0.00 0.00 0.00 0.00 0.00 0.00 0.00 0.00 0.00 0.00 0.00 0.00 0.00 0.00 0.00 0.00 0.00 0.00 0.00 0.00 0.00 0.00 0.00 0.00 0.00 0.00 0.00 0.00 0.00 0.00 0.00
0.00 0.00 0.00 0.00 0.00 0.00 0.00 0.00 0.00 0.00 0.00 0.00 0.00 0.00 0.00 0.00 0.00 0.00 0.00 0.00 0.00 0.00 0.00 0.00 0.00 0.00 0.00 0.00 0.00 0.00 0.00 0.00 0.00 0.00 0.00 0.00 0.00 0.00 0.00 0.00 0.00 0.00 0.00 0.00
0.00 0.00 0.00 0.00 0.00 0.00 0.00 0.00 0.00 0.00 0.00 0.00 0.00 0.00 0.00 0.00 0.00 0.00 0.00 0.00 0.00 0.00 0.00 0.00 0.00 0.00 0.00 0.00 0.00 0.00 0.00 0.00 0.00 0.00 0.00 0.00 0.00 0.00 0.00 0.00 0.00 0.00 0.00 0.00
0.00 0.00 0.00 0.00 0.00 0.00 0.01 0.00 0.00 0.00 0.00 0.00 0.00 0.00 0.00 0.00 0.00 0.00 0.00 0.00 0.00 0.00 0.00 0.00 0.00 0.00 0.00 0.00 0.00 0.00 0.00 0.00 0.00 0.00 0.00 0.00 0.00 0.00 0.00 0.00 0.00 0.00 0.00 0.00
0.00 0.00 0.00 0.00 0.00 0.03 0.04 0.00 0.00 0.00 0.00 0.00 0.00 0.00 0.00 0.00 0.00 0.00 0.00 0.00 0.00 0.00 0.00 0.00 0.00 0.00 0.00 0.00 0.00 0.00 0.00 0.00 0.00 0.00 0.00 0.00 0.00 0.00 0.00 0.00 0.00 0.00 0.00 0.00
0.00 0.00 0.00 0.00 0.00 0.00 0.00 0.00 0.00 0.00 0.00 0.00 0.00 0.00 0.00 0.00 0.00 0.00 0.00 0.00 0.00 0.00 0.00 0.00 0.00 0.00 0.00 0.00 0.00 0.00 0.00 0.00 0.00 0.00 0.00 0.00 0.00 0.00 0.00 0.00 0.00 0.00 0.00 0.00
0.00 0.00 0.00 0.00 0.00 0.00 0.00 0.00 0.00 0.00 0.00 0.00 0.00 0.00 0.00 0.00 0.00 0.00 0.00 0.00 0.00 0.00 0.00 0.00 0.00 0.00 0.00 0.00 0.00 0.00 0.00 0.00 0.00 0.00 0.00 0.00 0.00 0.00 0.00 0.00 0.00 0.00 0.00 0.00
0.00 0.00 0.00 0.00 0.00 0.00 0.00 0.00 0.00 0.00 0.00 0.00 0.00 0.00 0.00 0.00 0.00 0.00 0.00 0.00 0.00 0.00 0.00 0.00 0.00 0.00 0.00 0.00 0.00 0.00 0.00 0.00 0.00 0.00 0.00 0.00 0.00 0.00 0.00 0.00 0.00 0.00 0.00 0.00
0.00 0.00 0.00 0.00 0.00 0.00 0.00 0.00 0.00 0.00 0.00 0.00 0.00 0.00 0.00 0.00 0.00 0.00 0.00 0.00 0.00 0.00 0.00 0.00 0.00 0.00 0.00 0.00 0.00 0.00 0.00 0.00 0.00 0.00 0.00 0.00 0.00 0.00 0.00 0.00 0.00 0.00 0.00 0.00
0.00 0.00 0.00 0.00 0.00 0.00 0.00 0.00 0.00 0.00 0.00 0.00 0.00 0.00 0.00 0.00 0.00 0.00 0.00 0.00 0.00 0.00 0.00 0.00 0.00 0.00 0.00 0.00 0.00 0.00 0.00 0.00 0.00 0.00 0.00 0.00 0.00 0.00 0.00 0.00 0.00 0.00 0.00 0.00
0.01 0.00 0.00 0.00 0.00 0.00 0.00 0.00 0.00 0.00 0.00 0.00 0.00 0.00 0.00 0.00 0.00 0.00 0.00 0.00 0.00 0.00 0.00 0.00 0.00 0.00 0.00 0.00 0.00 0.00 0.00 0.00 0.00 0.00 0.00 0.00 0.00 0.00 0.00 0.00 0.00 0.00 0.00 0.00
0.01 0.02 0.02 0.01 0.00 0.00 0.00 0.00 0.00 0.00 0.00 0.00 0.00 0.00 0.00 0.00 0.00 0.00 0.00 0.00 0.00 0.00 0.00 0.00 0.00 0.00 0.00 0.00 0.00 0.00 0.00 0.00 0.00 0.00 0.00 0.00 0.00 0.00 0.00 0.00 0.00 0.00 0.00 0.00
0.00 0.01 0.01 0.01 0.00 0.01 0.01 0.00 0.00 0.00 0.00 0.00 0.00 0.00 0.00 0.00 0.00 0.00 0.00 0.00 0.00 0.00 0.00 0.00 0.00 0.00 0.00 0.00 0.00 0.00 0.00 0.00 0.00 0.00 0.00 0.00 0.00 0.00 0.00 0.00 0.00 0.00 0.00 0.00
MSLP
1015.63 1016.00 1014.83 1015.34 1016.56 1016.57 1016.61 1017.09 1017.14 1016.81 1016.55 1016.99 1017.20 1017.14 1016.87 1017.05 1017.57 1018.01 1018.01 1018.04 1018.24 1018.34 1017.95 1018.00 1018.14 1018.30 1018.64 1019.02 1019.30 1019.75 1020.19 1020.80 1021.39 1021.86 1022.39 1022.68 1023.00 1023.18 1023.40 1023.58 1023.79 1023.96 1024.22 1024.36
1016.33 1014.99 1015.35 1015.71 1016.27 1016.64 1016.48 1016.97 1017.38 1017.40 1017.12 1017.40 1017.62 1017.50 1017.15 1017.24 1017.13 1017.33 1017.38 1017.63 1017.82 1018.22 1018.24 1018.26 1018.42 1018.46 1018.64 1019.00 1019.39 1019.73 1019.95 1020.26 1020.90 1021.35 1021.86 1022.34 1022.61 1022.95 1023.01 1023.19 1023.35 1023.64 1023.88 1024.11
1015.90 1015.29 1015.29 1015.78 1016.15 1016.51 1016.64 1016.71 1017.38 1017.41 1017.61 1017.96 1018.06 1018.24 1017.64 1017.08 1016.97 1017.09 1017.37 1017.10 1017.60 1017.85 1018.17 1018.64 1018.62 1018.64 1018.95 1019.28 1019.57 1019.48 1019.69 1019.94 1020.27 1020.77 1021.32 1021.83 1022.18 1022.75 1023.06 1023.34 1023.35 1023.31 1023.49 1023.64
1015.74 1015.06 1014.90 1015.48 1015.44 1015.80 1016.45 1016.29 1016.85 1017.74 1018.36 1018.43 1018.32 1018.32 1017.76 1017.12 1016.86 1017.15 1017.22 1017.37 1017.60 1018.01 1018.28 1018.55 1018.88 1018.88 1019.05 1019.36 1019.49 1019.63 1019.64 1019.66 1020.06 1020.50 1020.94 1021.26 1021.88 1022.44 1022.65 1022.93 1023.16 1023.12 1023.41 1023.75
1014.92 1014.83 1015.00 1015.24 1014.57 1015.31 1015.87 1016.17 1016.93 1017.98 1018.65 1018.77 1019.17 1019.10 1017.38 1017.23 1017.14 1016.98 1016.80 1017.26 1017.57 1017.80 1018.12 1018.61 1019.10 1019.03 1019.09 1019.26 1019.70 1019.47 1019.58 1019.53 1019.73 1020.21 1020.57 1020.85 1021.41 1021.82 1022.58 1023.00 1023.40 1023.85 1024.33 1024.45
1014.77 1014.68 1014.64 1014.15 1014.67 1015.18 1015.95 1016.70 1017.77 1018.58 1019.42 1019.79 1018.88 1018.87 1017.42 1017.12 1016.21 1015.92 1016.43 1017.08 1017.40 1018.13 1018.61 1019.12 1019.36 1019.45 1019.53 1019.57 1019.71 1019.69 1019.60 1019.46 1019.54 1019.96 1020.25 1020.71 1021.40 1022.09 1022.76 1023.38 1024.04 1024.74 1025.09 1025.16
1014.73 1014.69 1014.30 1014.14 1015.03 1015.39 1015.51 1016.48 1018.57 1019.87 1020.34 1019.76 1019.32 1019.21 1016.81 1016.00 1015.49 1015.42 1015.62 1016.54 1017.41 1018.29 1018.78 1019.27 1019.61 1019.73 1019.76 1019.87 1020.05 1020.14 1020.03 1019.76 1019.60 1019.95 1020.33 1020.56 1021.34 1021.93 1022.78 1023.32 1024.08 1025.01 1025.87 1026.09
1014.43 1014.86 1014.27 1014.12 1014.43 1014.59 1015.48 1015.80 1017.26 1018.93 1020.50 1020.27 1019.82 1018.42 1016.14 1015.15 1014.93 1015.04 1015.42 1016.05 1017.38 1018.46 1018.85 1019.31 1019.55 1019.82 1019.87 1020.04 1020.45 1020.34 1020.35 1020.28 1020.22 1020.32 1020.75 1020.91 1021.76 1022.65 1023.57 1024.08 1024.47 1025.17 1025.64 1026.33
1013.43 1014.09 1014.14 1014.05 1014.22 1014.36 1015.53 1015.69 1016.31 1018.51 1020.98 1020.47 1018.88 1017.52 1015.80 1015.15 1014.98 1015.08 1015.83 1016.60 1017.34 1018.30 1018.92 1019.42 1019.91 1020.17 1020.38 1020.59 1020.90 1020.73 1020.60 1020.76 1020.83 1020.86 1021.29 1021.75 1022.41 1023.22 1024.18 1024.65 1025.10 1025.66 1026.22 1026.69
1012.59 1014.39 1014.89 1014.70 1014.65 1014.55 1014.21 1014.91 1016.36 1017.69 1019.70 1020.00 1018.56 1017.71 1015.74 1015.29 1014.80 1014.87 1015.93 1016.58 1017.42 1018.35 1019.07 1019.65 1020.08 1020.47 1020.72 1020.82 1021.13 1021.29 1021.20 1021.30 1021.34 1021.42 1021.94 1022.56 1023.27 1024.02 1024.78 1025.22 1025.68 1026.42 1026.91 1027.12
1012.47 1013.43 1015.66 1015.05 1014.63 1014.28 1014.77 1014.79 1015.49 1016.63 1017.82 1017.94 1018.02 1015.98 1013.65 1013.36 1013.44 1014.18 1015.16 1016.19 1017.11 1018.04 1018.81 1019.50 1019.94 1020.61 1020.95 1021.04 1021.23 1021.50 1021.75 1021.87 1022.06 1022.19 1022.69 1023.25 1024.09 1024.81 1025.48 1025.97 1026.44 1026.62 1026.98 1027.28
1012.42 1013.77 1015.29 1014.82 1014.46 1014.54 1014.14 1013.91 1014.56 1015.72 1017.09 1017.39 1016.90 1014.44 1012.68 1012.93 1013.13 1013.87 1015.09 1015.93 1016.99 1017.66 1018.48 1019.28 1019.82 1020.49 1021.03 1021.23 1021.37 1021.64 1021.89 1022.18 1022.67 1022.99 1023.22 1023.82 1024.57 1025.34 1025.93 1026.38 1026.82 1027.08 1027.49 1027.79
1011.79 1013.25 1014.87 1015.18 1015.00 1014.63 1014.16 1013.91 1013.88 1014.65 1015.65 1016.24 1016.13 1013.58 1012.43 1012.92 1013.33 1013.82 1014.71 1015.75 1016.71 1017.59 1018.40 1019.34 1020.09 1020.68 1021.05 1021.42 1021.55 1021.94 1022.21 1022.64 1023.15 1023.60 1023.73 1024.66 1025.20 1025.75 1026.37 1026.42 1026.87 1027.23 1027.68 1027.70
1010.81 1012.15 1012.58 1012.73 1012.20 1013.07 1014.06 1013.53 1013.98 1014.45 1015.52 1015.00 1014.06 1012.85 1012.52 1012.67 1013.34 1014.20 1014.72 1015.23 1016.20 1017.29 1017.97 1018.64 1019.55 1020.22 1020.92 1021.42 1021.76 1022.14 1022.46 1022.86 1023.53 1023.81 1024.16 1024.95 1025.63 1026.18 1026.50 1027.02 1027.10 1027.35 1027.64 1027.84
1010.89 1011.81 1012.62 1012.65 1012.27 1012.38 1012.49 1012.65 1013.00 1013.35 1012.83 1013.53 1011.57 1011.83 1011.74 1011.97 1012.64 1013.58 1014.53 1015.32 1016.10 1016.83 1017.57 1018.04 1018.69 1019.34 1020.26 1021.01 1021.67 1022.21 1022.70 1023.19 1023.51 1023.91 1024.55 1025.22 1025.76 1026.38 1026.93 1027.19 1027.30 1027.69 1027.78 1027.97
1011.20 1012.24 1012.92 1013.42 1013.16 1012.81 1012.75 1012.65 1012.60 1012.16 1011.81 1011.83 1010.71 1010.71 1010.71 1011.20 1012.15 1013.13 1013.67 1014.25 1014.79 1015.29 1016.07 1017.13 1017.96 1018.55 1019.32 1020.25 1021.05 1021.80 1022.60 1023.30 1023.59 1024.17 1024.96 1025.53 1026.24 1026.84 1027.00 1027.18 1027.44 1027.86 1027.94 1028.06
1011.76 1012.79 1013.99 1014.35 1014.17 1013.78 1013.48 1011.45 1011.94 1011.43 1010.95 1010.07 1010.30 1008.43 1010.05 1010.84 1011.61 1012.03 1012.84 1013.22 1013.26 1013.91 1014.87 1015.57 1016.02 1016.86 1018.14 1019.15 1019.94 1020.83 1022.02 1022.82 1023.46 1024.17 1024.95 1025.66 1026.37 1026.84 1027.06 1027.27 1027.51 1027.71 1027.80 1027.90
1012.07 1013.30 1014.36 1015.53 1015.39 1014.39 1011.40 1011.32 1010.78 1010.73 1009.84 1009.36 1008.83 1008.88 1009.25 1009.96 1010.36 1010.51 1010.80 1011.46 1011.87 1012.71 1013.59 1014.37 1015.12 1016.15 1017.23 1018.52 1019.76 1020.76 1021.91 1022.77 1023.56 1024.37 1025.09 1025.85 1026.23 1026.62 1027.09 1027.39 1027.47 1027.48 1027.53 1027.93
1012.42 1013.45 1015.49 1016.34 1016.46 1014.19 1011.80 1010.89 1010.43 1010.53 1009.14 1009.37 1008.47 1009.10 1009.66 1009.85 1010.17 1010.08 1009.87 1009.97 1010.56 1011.08 1011.61 1012.12 1012.96 1014.50 1016.39 1017.89 1019.28 1020.54 1021.78 1022.62 1023.54 1024.28 1024.76 1025.48 1025.89 1026.49 1027.00 1027.24 1027.30 1027.36 1027.71 1028.15
1012.88 1013.24 1014.79 1016.62 1016.28 1014.34 1009.84 1010.14 1009.77 1010.18 1008.99 1007.96 1008.43 1008.62 1009.42 1009.96 1010.21 1007.79 1008.80 1009.15 1009.32 1009.68 1010.68 1011.78 1012.82 1014.25 1015.78 1017.09 1018.46 1019.96 1021.28 1022.20 1022.85 1023.53 1024.22 1025.03 1025.75 1026.26 1026.66 1026.89 1027.23 1027.60 1027.90 1028.24
1013.96 1014.56 1014.86 1015.80 1015.28 1012.81 1010.53 1009.72 1009.65 1010.19 1008.27 1007.39 1007.55 1007.93 1008.98 1009.46 1008.09 1008.24 1008.40 1008.87 1008.96 1009.58 1010.45 1011.49 1012.47 1013.42 1014.77 1016.58 1018.02 1019.70 1021.00 1021.73 1022.42 1023.47 1024.41 1025.19 1025.73 1026.14 1026.42 1026.89 1027.31 1027.63 1028.03 1028.42
1012.27 1013.36 1013.90 1014.31 1014.42 1012.10 1009.70 1010.19 1009.78 1008.81 1008.62 1008.65 1008.64 1008.84 1009.08 1008.94 1008.81 1008.91 1009.11 1009.33 1009.64 1010.06 1010.76 1011.41 1012.65 1013.88 1015.12 1016.16 1017.18 1018.73 1020.10 1021.07 1022.13 1023.17 1024.24 1025.08 1025.59 1026.12 1026.43 1027.00 1027.36 1027.83 1028.22 1028.73
1011.58 1010.48 1011.04 1011.32 1010.16 1009.76 1009.55 1009.37 1009.45 1009.26 1009.32 1009.51 1009.55 1009.44 1009.48 1009.61 1009.40 1009.51 1009.93 1010.41 1010.80 1011.03 1011.31 1012.01 1012.77 1014.10 1015.31 1015.98 1016.60 1017.87 1019.37 1020.63 1022.03 1023.31 1024.36 1025.17 1025.75 1026.30 1026.65 1026.97 1027.56 1027.98 1028.30 1028.64
1010.84 1010.32 1010.19 1010.24 1009.32 1009.42 1009.76 1009.84 1009.76 1009.74 1009.83 1010.01 1010.10 1010.28 1010.28 1010.19 1010.23 1010.47 1010.81 1011.34 1011.77 1012.11 1012.45 1012.78 1013.48 1014.38 1015.37 1016.23 1017.16 1018.03 1019.36 1020.80 1022.06 1023.25 1024.31 1025.19 1025.76 1026.36 1026.58 1026.95 1027.24 1027.77 1028.02 1028.10
1010.66 1010.39 1010.21 1009.98 1009.60 1009.65 1009.80 1010.02 1009.99 1010.06 1010.17 1010.44 1010.32 1010.40 1010.58 1010.69 1010.94 1011.40 1011.92 1012.44 1012.83 1013.00 1013.35 1013.71 1014.14 1014.77 1015.57 1016.37 1017.32 1018.36 1019.61 1020.79 1022.11 1023.32 1024.40 1025.18 1025.80 1026.03 1026.28 1026.81 1027.09 1027.06 1027.00 1027.29
1010.61 1010.34 1010.27 1010.04 1009.62 1009.70 1010.01 1009.85 1009.85 1010.12 1010.45 1010.59 1010.91 1011.03 1011.08 1011.25 1011.50 1012.01 1012.66 1013.05 1013.39 1013.71 1013.93 1014.23 1014.64 1015.30 1016.18 1016.86 1017.95 1019.26 1020.16 1020.98 1022.06 1023.41 1024.43 1025.39 1025.59 1025.75 1026.52 1026.97 1027.15 1026.81 1026.52 1026.65
Thickness
5603 5598 5616 5622 5610 5616 5620 5624 5628 5639 5648 5648 5647 5660 5667 5675 5678 5679 5687 5690 5691 5693 5705 5708 5709 5710 5710 5708 5707 5704 5701 5697 5692 5689 5684 5681 5678 5678 5675 5673 5670 5669 5665 5662
5586 5602 5613 5614 5611 5613 5618 5616 5618 5627 5639 5642 5640 5649 5661 5666 5674 5679 5687 5688 5693 5693 5697 5700 5703 5705 5705 5704 5703 5701 5700 5698 5692 5688 5683 5678 5676 5673 5673 5671 5669 5665 5662 5659
5582 5600 5604 5600 5604 5605 5608 5613 5610 5626 5628 5632 5630 5631 5647 5662 5668 5677 5681 5692 5690 5692 5693 5693 5697 5701 5698 5696 5695 5699 5698 5697 5695 5689 5683 5678 5675 5668 5666 5663 5663 5662 5660 5658
5577 5595 5596 5597 5609 5612 5598 5621 5618 5609 5610 5605 5627 5607 5632 5652 5663 5667 5676 5679 5685 5686 5690 5691 5691 5695 5695 5693 5692 5692 5694 5696 5691 5686 5682 5678 5672 5666 5664 5661 5658 5656 5652 5648
5582 5582 5585 5592 5612 5608 5607 5615 5612 5605 5605 5609 5612 5606 5631 5640 5649 5660 5673 5676 5681 5685 5687 5686 5683 5687 5690 5690 5686 5689 5689 5691 5690 5684 5680 5677 5671 5668 5660 5656 5651 5645 5640 5637
5579 5588 5591 5602 5602 5605 5601 5602 5596 5590 5589 5583 5607 5608 5624 5631 5656 5675 5674 5672 5678 5677 5677 5675 5676 5678 5680 5679 5679 5680 5683 5686 5685 5681 5677 5672 5665 5658 5652 5646 5639 5632 5627 5625
5571 5578 5589 5597 5588 5594 5597 5597 5567 5566 5558 5579 5591 5590 5631 5646 5655 5667 5673 5672 5669 5667 5667 5667 5667 5669 5671 5671 5669 5670 5672 5676 5677 5673 5669 5668 5660 5655 5647 5642 5634 5623 5614 5611
5564 5559 5577 5589 5589 5588 5582 5596 5563 5550 5551 5578 5578 5584 5618 5646 5657 5664 5668 5669 5660 5659 5662 5661 5661 5660 5663 5663 5659 5661 5662 5663 5662 5661 5658 5656 5649 5641 5633 5628 5623 5616 5610 5601
5562 5569 5579 5584 5587 5592 5581 5579 5594 5564 5488 5555 5583 5602 5626 5646 5652 5660 5656 5657 5656 5651 5651 5651 5648 5649 5650 5649 5647 5650 5652 5651 5650 5650 5645 5641 5636 5628 5619 5614 5609 5603 5596 5590
5573 5558 5564 5573 5579 5583 5587 5593 5576 5562 5542 5550 5578 5587 5609 5630 5647 5653 5647 5653 5647 5643 5639 5638 5637 5637 5637 5638 5636 5636 5638 5639 5639 5638 5633 5627 5620 5612 5605 5600 5595 5588 5581 5577
5568 5565 5550 5563 5565 5573 5574 5572 5578 5577 5567 5565 5554 5594 5627 5646 5657 5655 5650 5645 5643 5636 5633 5630 5629 5626 5625 5626 5626 5625 5624 5625 5624 5623 5618 5612 5604 5596 5591 5586 5580 5577 5572 5567
5565 5548 5533 5556 5567 5567 5576 5582 5583 5582 5569 5562 5566 5598 5639 5639 5649 5649 5643 5641 5631 5630 5625 5621 5620 5616 5615 5615 5615 5614 5613 5612 5609 5606 5603 5598 5591 5584 5578 5574 5569 5564 5558 5553
5557 5539 5516 5542 5555 5559 5561 5573 5584 5575 5563 5562 5562 5597 5629 5628 5635 5636 5635 5628 5623 5617 5613 5609 5605 5604 5603 5602 5603 5601 5600 5598 5594 5589 5589 5581 5577 5571 5565 5563 5559 5553 5546 5543
5567 5548 5555 5561 5580 5571 5560 5569 5571 5573 5551 5560 5573 5614 5625 5627 5624 5622 5620 5620 5616 5610 5608 5605 5601 5598 5594 5592 5591 5589 5588 5585 5578 5577 5575 5569 5563 5558 5554 5549 5545 5540 5534 5529
5558 5537 5547 5563 5570 5569 5574 5573 5572 5572 5593 5577 5614 5595 5622 5623 5619 5615 5611 5606 5605 5602 5601 5601 5598 5594 5590 5585 5581 5578 5574 5570 5568 5567 5562 5557 5552 5545 5538 5534 5530 5524 5520 5515
5545 5525 5545 5536 5553 5560 5562 5560 5564 5574 5581 5579 5599 5596 5616 5618 5609 5606 5609 5606 5607 5608 5605 5598 5592 5590 5586 5581 5575 5570 5564 5559 5557 5553 5548 5542 5535 5528 5525 5521 5516 5510 5506 5500
5540 5518 5509 5541 5530 5537 5530 5561 5558 5571 5582 5593 5583 5625 5611 5607 5606 5607 5600 5601 5608 5608 5603 5599 5598 5594 5585 5578 5573 5567 5558 5551 5547 5541 5535 5528 5521 5516 5512 5507 5503 5498 5493 5489
5509 5515 5496 5496 5503 5513 5565 5566 5570 5569 5579 5593 5601 5606 5607 5607 5608 5607 5608 5607 5613 5608 5604 5599 5594 5588 5580 5570 5562 5554 5545 5539 5533 5526 5519 5513 5508 5503 5497 5493 5490 5486 5482 5475
5500 5496 5465 5474 5415 5511 5546 5549 5559 5551 5577 5579 5594 5599 5590 5594 5591 5594 5604 5613 5611 5608 5609 5606 5598 5587 5572 5561 5551 5540 5531 5525 5518 5512 5507 5501 5496 5490 5484 5480 5477 5473 5466 5459
5495 5504 5497 5399 5454 5482 5576 5553 5554 5559 5557 5596 5584 5590 5578 5569 5567 5611 5606 5603 5606 5606 5600 5592 5584 5572 5561 5551 5542 5531 5522 5514 5509 5503 5496 5489 5482 5477 5472 5468 5463 5457 5451 5446
5472 5460 5496 5421 5428 5484 5522 5540 5544 5532 5580 5562 5581 5586 5566 5567 5591 5589 5595 5586 5591 5588 5580 5574 5569 5563 5555 5539 5529 5518 5508 5504 5498 5487 5479 5473 5468 5463 5459 5454 5449 5443 5436 5430
5484 5479 5476 5449 5456 5509 5518 5518 5537 5557 5547 5550 5556 5561 5560 5556 5564 5566 5568 5569 5566 5567 5562 5561 5551 5543 5534 5527 5522 5512 5503 5494 5484 5475 5467 5459 5454 5450 5445 5439 5433 5426 5421 5413
5486 5502 5508 5510 5515 5510 5508 5519 5515 5521 5527 5531 5534 5537 5541 5546 5552 5550 5548 5545 5544 5544 5543 5541 5537 5524 5517 5514 5514 5504 5493 5480 5470 5461 5452 5445 5439 5434 5429 5424 5417 5412 5405 5398
5466 5475 5484 5502 5507 5504 5495 5495 5501 5507 5514 5513 5514 5517 5521 5531 5532 5533 5527 5525 5524 5519 5522 5522 5517 5512 5505 5500 5495 5490 5476 5465 5456 5447 5438 5431 5426 5419 5415 5410 5405 5397 5391 5384
5457 5466 5471 5471 5487 5485 5486 5484 5491 5494 5495 5499 5502 5505 5507 5513 5515 5513 5507 5504 5504 5503 5500 5503 5503 5499 5493 5486 5478 5470 5461 5452 5442 5432 5424 5417 5412 5408 5403 5396 5390 5386 5381 5373
5444 5456 5463 5467 5475 5478 5477 5481 5480 5481 5483 5484 5487 5492 5493 5494 5497 5494 5487 5488 5489 5488 5486 5486 5484 5482 5473 5468 5459 5450 5444 5438 5429 5419 5410 5402 5398 5394 5387 5380 5374 5371 5366 5359